Helicity
169 185 160 79 99 87 67 78 86 76 98 55 66 82 82 50 8 -3 29 66 107 137 225 282 358 370 377 306 292 291 289 269 301 307 309 281 239 209 205 195 185 187 180 174
185 130 51 89 113 85 69 73 79 61 56 -22 26 62 52 71 22 -4 -27 79 170 299 276 326 347 353 342 319 267 294 285 282 294 321 325 282 272 226 226 225 237 218 217 209
162 80 141 131 112 102 82 87 89 92 160 73 -0 65 121 95 43 40 71 69 177 299 345 328 318 336 375 379 363 323 292 273 282 316 341 359 325 307 285 282 275 248 234 239
113 50 81 127 113 138 87 99 111 128 136 123 129 89 83 82 32 62 90 161 204 241 306 322 315 400 481 434 415 371 340 290 281 312 340 331 336 310 253 282 278 273 259 251
127 91 118 129 60 159 84 141 125 139 141 111 146 142 78 101 88 65 115 220 338 325 331 374 379 426 421 499 521 445 353 313 313 316 320 340 315 289 331 339 326 287 271 251
106 111 136 118 144 134 137 121 174 184 163 119 99 144 88 90 122 97 203 256 357 382 389 385 381 435 399 413 467 429 397 337 311 321 302 307 326 335 361 335 325 282 275 260
133 93 94 105 129 155 191 209 200 175 175 91 17 98 81 92 109 136 196 268 277 329 352 409 415 447 426 445 451 446 368 324 314 311 334 323 314 301 303 295 288 277 274 247
155 148 139 147 113 113 151 195 206 150 141 126 65 70 47 23 92 78 153 246 250 251 324 413 376 443 546 543 471 459 405 375 337 317 349 338 325 313 298 274 262 253 230 208
245 196 194 205 166 142 164 196 136 169 160 146 112 110 59 63 131 153 59 119 181 208 273 266 341 443 545 534 521 586 495 402 419 401 398 352 348 320 291 272 261 233 240 218
252 263 212 218 146 213 194 132 262 311 229 217 169 97 65 104 208 151 176 141 98 130 207 261 375 510 559 578 521 524 457 440 421 434 409 383 342 315 296 282 273 242 240 238
297 232 250 214 227 265 279 290 263 208 228 199 156 128 184 206 188 207 189 205 239 289 186 292 357 454 555 540 514 543 511 523 476 421 421 372 356 353 330 299 262 243 248 228
246 214 206 233 207 169 196 274 269 254 266 269 217 220 121 99 131 188 227 300 279 255 227 308 356 494 515 585 580 569 551 476 448 445 443 391 381 363 359 334 258 243 242 242
262 232 181 203 257 277 284 329 306 251 228 259 252 292 346 197 136 116 112 103 178 181 131 112 310 445 472 512 543 563 526 474 507 509 465 407 428 394 365 340 305 254 266 265
108 147 202 227 273 252 294 308 277 270 263 326 255 255 252 41 40 30 122 115 50 131 215 62 224 377 398 465 528 554 577 611 557 453 457 454 412 371 358 331 325 296 281 283
51 78 138 182 221 206 193 185 172 190 203 172 189 151 98 -14 -7 45 62 84 93 164 280 269 199 325 395 457 561 631 637 526 428 393 424 439 430 390 383 367 333 330 312 284
6 91 89 54 111 182 204 153 113 115 115 140 153 128 122 87 -6 38 65 109 115 173 225 272 306 154 222 364 520 624 602 593 465 377 402 465 487 432 381 364 372 351 347 308
36 40 80 51 191 158 172 145 117 97 76 77 83 137 175 170 138 106 92 107 143 167 184 195 129 188 115 259 450 557 557 550 490 412 428 415 484 437 391 385 386 387 341 300
96 96 96 120 159 123 96 271 193 171 283 328 258 251 255 219 148 132 169 182 183 151 175 234 167 110 91 136 278 373 407 488 460 377 394 433 444 489 437 390 373 368 333 276
39 60 154 121 98 200 192 322 333 369 293 322 270 228 235 316 161 139 292 228 196 126 101 135 154 123 101 78 202 289 297 385 413 444 361 448 471 498 508 410 375 356 336 283
56 94 110 122 126 122 223 355 291 249 219 264 207 231 206 209 202 262 335 305 237 148 96 159 190 148 236 45 353 474 454 395 422 439 502 590 520 502 429 384 385 354 315 268
146 155 156 147 172 139 223 164 92 182 239 216 146 134 142 92 98 236 162 217 196 179 172 234 296 169 212 100 256 372 416 437 444 504 465 479 488 482 397 369 355 365 325 291
95 128 131 135 145 155 222 162 244 228 216 248 268 174 140 110 55 90 104 113 52 152 207 214 347 335 280 429 120 193 284 379 383 386 395 388 461 456 404 403 379 338 318 282
134 141 110 96 159 161 133 73 75 60 120 202 136 110 100 104 50 37 95 54 -23 -13 135 124 248 501 391 369 375 92 181 254 325 389 365 401 427 424 423 419 388 366 312 307
166 147 141 87 76 82 75 18 21 73 109 73 75 72 53 58 19 14 22 -1 -44 -70 -1 52 100 354 428 374 378 189 89 201 300 369 417 394 410 429 395 364 356 361 326 301
152 138 101 95 112 114 70 47 -14 -54 -39 20 48 10 18 -6 6 -15 -7 -29 -63 -64 -90 -12 -4 204 427 462 403 324 165 212 276 309 359 369 405 413 378 321 321 349 292 321
209 192 228 225 158 155 114 62 19 16 -1 9 43 33 6 -2 2 4 -17 -28 -75 -98 -77 -142 -54 -40 230 424 371 487 469 186 280 322 360 384 390 384 359 342 324 302 268 249
Wind_Speed
34 40 37 30 39 48 57 64 71 63 62 62 54 51 54 42 43 44 42 37 36 37 30 35 37 32 30 29 28 26 22 17 15 10 8 9 10 14 18 21 21 21 20 21
41 48 34 35 33 43 54 66 73 68 68 61 66 61 51 53 52 45 41 44 43 40 40 37 36 38 36 34 32 29 25 21 18 15 15 18 12 19 18 19 21 21 21 22
40 41 35 35 41 45 52 56 62 65 62 55 58 68 56 53 61 64 63 63 55 45 42 40 39 37 39 40 38 35 30 26 23 18 16 16 19 18 22 21 22 23 21 23
47 54 48 41 49 39 60 46 59 63 56 63 51 88 67 56 58 61 61 59 56 50 45 42 41 41 41 41 42 39 33 30 27 22 21 19 23 22 23 19 20 22 21 21
48 43 42 47 49 39 54 55 50 48 57 55 61 71 73 52 66 66 60 56 52 47 45 43 45 43 42 41 40 41 38 36 32 28 25 22 23 24 16 16 16 19 20 21
54 46 39 37 42 41 46 46 38 35 38 69 66 66 78 68 67 60 57 56 52 48 47 43 39 40 44 47 43 41 41 40 37 33 30 26 23 19 17 14 16 17 17 18
61 67 57 49 59 47 44 44 52 60 61 69 42 58 84 63 64 58 52 53 52 49 49 50 47 44 42 46 50 48 46 46 42 37 36 31 25 20 17 14 14 14 14 15
54 61 53 51 57 52 47 46 51 62 67 57 42 59 70 57 63 55 49 47 49 53 50 49 50 48 43 46 49 46 43 42 40 36 35 29 24 21 17 13 9 14 13 12
55 57 43 40 42 43 53 59 51 62 55 56 52 59 61 52 46 48 49 47 52 59 60 57 61 50 49 43 43 41 42 39 36 35 33 28 26 22 18 12 10 10 12 12
55 62 47 46 40 38 44 37 56 58 69 75 66 67 61 41 45 50 52 51 57 65 62 61 61 56 60 57 50 46 41 39 36 34 33 31 27 22 17 12 11 8 10 12
51 56 59 51 44 50 49 51 50 53 62 73 77 66 47 36 38 46 49 50 57 66 72 64 61 58 64 62 58 49 43 38 36 37 36 32 28 23 18 15 10 7 6 4
51 54 64 59 50 36 38 48 50 64 66 62 73 64 35 33 40 44 48 55 59 63 67 60 56 53 55 56 56 54 52 46 40 36 38 36 30 27 24 18 12 9 7 7
56 57 71 61 49 45 48 48 49 53 55 68 73 70 47 50 51 51 55 57 61 64 65 58 56 60 55 51 54 60 56 48 38 32 33 36 36 32 29 24 17 11 9 11
52 58 66 75 61 59 64 63 57 57 69 74 80 72 68 62 60 59 59 60 62 63 66 60 46 49 54 54 53 52 50 44 38 37 34 35 35 34 29 27 22 16 11 12
55 68 68 72 73 72 75 73 68 69 70 79 83 86 81 70 65 64 64 64 63 64 62 59 53 47 43 44 43 47 51 45 43 42 40 39 38 36 33 29 26 20 17 15
59 72 74 82 77 78 88 81 73 75 77 86 92 98 66 59 60 65 64 63 63 62 62 60 57 53 51 48 40 39 46 48 45 46 42 38 36 38 37 34 28 27 22 17
68 67 72 85 72 76 94 85 82 74 68 76 84 74 67 67 64 62 65 63 64 64 64 64 63 63 61 52 47 45 43 45 45 44 47 47 36 34 35 33 32 27 24 21
69 67 68 83 78 103 72 68 64 63 59 58 60 66 68 73 66 51 56 63 66 67 68 70 74 75 74 63 55 48 42 44 47 45 40 41 37 35 35 34 32 29 25 23
51 56 67 77 81 82 69 55 58 65 69 60 65 67 70 75 67 63 65 65 67 68 70 74 77 82 89 70 52 50 52 49 45 43 48 45 40 41 37 38 36 31 28 25
37 41 55 63 76 83 61 62 59 57 76 59 62 69 72 69 74 73 72 72 70 70 72 79 79 74 71 65 42 41 44 56 53 43 40 38 48 41 39 38 35 32 29 26
58 58 70 70 75 67 62 63 55 66 66 60 58 62 64 66 66 72 72 73 69 71 73 77 75 71 69 57 42 44 46 50 52 43 36 33 40 42 39 38 38 33 31 27
66 66 68 66 75 87 51 51 55 55 54 63 62 62 61 61 64 69 73 75 74 74 72 72 73 69 63 57 54 53 47 39 38 38 40 41 39 37 39 39 38 34 31 29
69 59 69 65 66 52 64 59 56 61 67 69 62 63 66 72 69 71 76 78 76 71 73 70 71 70 63 57 59 68 59 45 40 40 41 39 38 42 39 40 39 36 34 32
74 68 82 80 75 80 66 69 77 81 87 77 70 75 74 78 78 78 80 79 77 71 71 72 73 73 72 68 68 68 73 54 44 43 38 37 39 35 40 44 43 39 38 35
73 62 75 84 75 76 82 76 77 82 81 86 88 84 83 85 88 87 87 81 74 73 75 75 74 77 78 74 73 72 73 52 46 44 42 42 39 37 40 45 42 42 41 38
67 78 82 89 71 77 80 81 85 93 97 94 100 93 91 92 95 90 89 80 78 82 85 81 79 77 79 77 72 71 65 59 52 51 48 48 40 39 42 43 41 43 43 39
Wind_Direction
281 275 276 284 283 278 270 264 261 261 259 263 262 269 261 239 240 244 241 233 223 214 228 233 228 226 225 223 213 204 201 203 195 206 237 279 302 325 337 345 352 2 11 11
275 271 281 286 291 283 274 266 264 267 261 261 261 263 262 243 241 239 239 241 241 243 242 235 229 231 221 214 213 217 217 212 222 230 257 281 290 311 324 337 344 352 357 357
269 285 275 280 281 281 277 272 268 266 267 264 262 259 257 253 250 251 254 256 255 241 237 235 229 226 229 220 214 213 218 225 238 242 264 281 295 306 312 321 329 340 349 351
274 270 276 279 275 279 272 282 274 270 267 260 265 255 256 252 249 249 249 252 250 247 246 240 235 235 225 220 229 229 229 234 240 242 257 252 271 282 299 312 325 336 345 349
274 279 270 268 271 277 276 281 284 277 271 266 262 261 257 257 252 252 251 252 247 240 238 237 232 233 231 226 219 229 235 240 246 250 254 257 270 285 294 312 325 335 342 349
270 277 280 277 275 279 280 283 288 290 280 266 262 261 261 260 259 258 257 252 244 238 235 234 234 241 239 239 235 234 237 243 246 249 257 257 256 265 279 296 313 329 340 349
269 267 271 275 272 276 276 276 271 269 267 267 283 268 262 269 269 266 255 248 243 240 236 238 235 230 230 232 241 245 247 248 248 250 255 256 253 256 267 281 302 316 331 342
267 269 267 272 267 269 269 264 266 266 267 273 283 275 270 273 267 273 269 260 245 237 236 228 228 234 226 227 238 242 239 242 242 245 245 247 244 254 265 278 296 309 322 341
273 269 282 287 282 265 266 264 270 271 277 277 278 279 280 284 280 277 277 272 262 256 253 248 248 240 236 223 223 225 235 240 238 236 232 235 240 247 256 266 290 304 313 331
278 270 279 280 287 290 273 274 265 265 265 266 273 275 275 294 292 291 287 283 275 267 261 255 252 246 247 244 248 245 245 247 244 243 236 236 239 242 247 252 267 280 302 313
287 273 273 278 280 278 275 270 272 272 267 265 267 273 296 299 299 296 296 293 289 281 266 262 256 253 250 249 252 248 247 246 247 244 241 237 233 232 236 245 249 257 291 309
290 280 271 270 285 293 282 276 274 266 266 269 265 263 307 312 310 305 302 300 294 291 279 268 260 254 250 247 244 243 246 250 247 243 241 237 233 234 240 242 240 244 264 285
289 279 272 272 274 280 278 282 282 278 274 266 263 263 291 299 302 306 305 307 302 296 289 280 266 256 252 249 247 245 247 249 247 242 239 241 238 237 241 240 240 238 254 272
290 279 273 267 272 277 271 276 280 277 268 268 265 269 279 292 296 299 308 310 307 303 299 289 274 264 257 255 252 246 243 240 239 242 240 239 238 239 237 240 240 244 246 253
291 276 277 276 277 277 274 273 274 271 271 268 267 273 281 284 289 293 299 307 309 305 304 299 285 275 266 261 256 249 241 236 236 241 243 243 244 244 240 237 242 244 242 245
289 278 280 276 276 274 270 272 272 272 272 272 273 271 285 287 290 292 295 299 303 307 301 297 293 284 275 269 261 254 242 235 236 243 243 243 242 239 237 238 239 243 241 234
283 279 279 272 279 277 271 269 270 273 273 273 270 273 281 282 288 291 292 296 297 300 303 296 292 289 278 269 261 257 246 240 237 240 249 245 234 229 230 233 236 237 233 233
278 276 277 273 277 268 275 283 276 272 275 278 276 279 282 281 284 291 302 297 296 298 299 297 291 286 282 274 264 257 247 241 240 243 240 235 232 229 228 230 231 232 231 227
279 270 275 273 270 275 279 284 280 274 270 281 278 282 285 285 280 272 299 299 297 297 300 297 297 288 278 271 262 258 253 244 240 244 239 240 233 234 228 225 229 228 228 234
295 275 272 274 272 270 277 285 289 284 269 287 285 284 285 286 272 276 291 294 295 297 299 299 299 301 298 271 250 246 246 245 243 241 244 238 238 234 228 224 220 227 226 228
282 279 274 274 272 276 287 289 290 270 274 293 290 288 286 282 281 284 290 293 295 297 296 302 303 301 301 281 259 252 252 246 246 249 242 228 236 237 226 224 229 225 224 224
280 278 275 275 271 269 291 296 280 286 292 293 294 286 288 290 291 290 291 292 292 294 298 300 299 297 303 296 267 261 257 251 246 245 238 237 239 234 228 224 228 225 220 219
275 276 279 275 275 282 292 287 289 290 290 294 289 290 289 289 291 291 291 291 291 292 294 296 295 292 295 295 288 263 260 251 244 248 239 235 236 239 230 223 224 222 219 219
275 281 277 278 276 275 280 287 287 288 285 285 285 286 286 286 288 289 290 291 288 288 290 292 288 285 283 287 287 276 258 253 248 246 237 233 233 229 234 232 227 223 219 219
276 279 277 277 277 280 280 285 288 288 288 283 282 284 282 284 284 285 285 285 285 285 285 284 282 280 279 284 283 281 268 251 246 245 240 237 235 229 233 233 225 226 226 218
273 272 272 275 280 280 278 287 289 287 284 283 278 276 278 282 282 283 280 281 281 283 281 277 276 278 276 277 283 284 286 254 247 245 242 239 235 234 237 232 233 241 236 228